Location: Hannover
(52.3723°N, 9.7339°E)
Time: 23:50:13
(UTC+02:00)

ISS - Pass Details

Date: 25 March 2019
Orbit: 408 x 410 km, 51.6° (Epoch: 24 April)

Event Time Altitude Azimuth Distance (km) Brightness Sun altitude
Rises 20:12:44 0° 242° (WSW) 2,332 0.6 -14.2°
Reaches altitude 10° 20:14:50 10° 237° (WSW) 1,472 -0.5 -14.5°
Maximum altitude 20:18:03 50° 161° (SSE) 530 -3.6 -14.9°
Enters shadow 20:19:03 35° 109° (ESE) 681 -3.3 -15.1°
